[[{"header":{"parameterUnit":"m.s-1","parameterCategory":1,"la1":30.2991,"la2":30.254,"lo1":-89.0895,"lo2":-89.0444,"dy":0.0017,"dx":0.0017,"nx":28,"ny":28,"refTime":"2024-07-07T09:00:00:Z","depth":0,"parameterNumber":2,"parameterNumberName":"U-component_of_WINDS"},"data":[0,0,0,0,0,0,0,0,0,0,0,0,0,0,0,0,0,0,0,0,0,0,0,0,0,0,0,0,0,0,0,0,0,0,0,0,0,0,0,0,0,0,0,0,0,0,0,0,0,0,0,0,0,0,0,0,0,0,-1.2308,-1.2307,0,-1.2169,-1.2168,-1.2166,-1.2085,-1.2084,-1.2084,-1.2084,-1.1938,-1.1935,-1.1931,0,0,0,0,0,0,0,0,0,0,0,0,0,-1.2502,-1.2499,-1.2308,-1.2306,-1.2305,-1.217,-1.2168,-1.2166,-1.2085,-1.2084,-1.2084,-1.2084,-1.1939,-1.1935,-1.1931,0,0,0,0,0,0,0,0,0,0,0,0,0,-1.2396,-1.2498,-1.2308,-1.2248,-1.2241,-1.217,-1.2168,-1.2165,-1.2085,-1.2084,-1.2084,-1.2083,-1.1941,-1.1935,-1.193,-1.1907,0,0,-1.1914,-1.1912,0,0,0,0,0,0,0,0,-1.2402,-1.2389,-1.2259,-1.2252,-1.2244,-1.2144,-1.2182,-1.2079,-1.2085,-1.2144,-1.2084,-1.2083,-1.2007,-1.1996,-1.1971,-1.19,-1.1894,-1.1913,-1.191,-1.1908,-1.1906,0,0,0,0,0,0,0,-1.2409,-1.2394,-1.2253,-1.2257,-1.2248,-1.2227,-1.2212,-1.2162,-1.208,-1.2139,-1.2133,-1.2118,-1.2003,-1.1976,-1.1967,-1.1892,-1.1914,-1.1909,-1.1905,-1.1903,-1.1797,-1.1798,0,0,0,0,0,0,-1.2427,-1.2401,-1.2257,-1.2249,-1.2324,-1.2224,-1.2207,-1.2177,-1.208,-1.2065,-1.2118,-1.2114,-1.1986,-1.1973,-1.1961,-1.1929,-1.1908,-1.1903,-1.19,-1.1797,-1.1797,-1.1798,0,0,0,0,0,0,-1.2431,-1.2415,-1.2263,-1.2323,-1.2302,-1.2222,-1.2188,-1.2174,-1.2147,-1.2064,-1.2049,-1.2106,-1.1985,-1.1969,-1.1922,-1.1923,-1.19,-1.1896,-1.1796,-1.1797,-1.1798,-1.1863,0,0,0,0,0,0,-1.2437,-1.2417,-1.2407,-1.2324,-1.23,-1.2227,-1.2188,-1.2172,-1.2139,-1.2133,-1.2049,-1.2035,-1.1983,-1.193,-1.1917,-1.1915,-1.1891,-1.1796,-1.1797,-1.1797,-1.1861,-1.1866,-1.1871,0,0,0,0,0,-1.2444,-1.243,-1.2407,-1.239,-1.2286,-1.2227,-1.2213,-1.2154,-1.2139,-1.2129,-1.2076,-1.2038,-1.1925,-1.1926,-1.191,-1.1907,-1.1796,-1.1796,-1.1797,-1.1859,-1.1865,-1.1871,0,0,0,0,0,0,-1.2514,-1.2418,-1.2391,-1.235,-1.2298,-1.2213,-1.2198,-1.2163,-1.2112,-1.2108,-1.2037,-1.2019,-1.1979,-1.1938,-1.1941,-1.188,-1.1856,-1.1854,-1.1908,-1.1914,-1.1919,-1.1929,-1.1887,0,0,0,0,0,-1.2525,-1.2486,-1.2403,-1.2375,-1.235,-1.2279,-1.2251,-1.2211,-1.2153,-1.213,-1.2073,-1.2018,-1.197,-1.194,-1.1891,-1.1855,-1.1836,-1.1845,-1.185,-1.1855,-1.1853,-1.1832,-1.1835,-1.1801,-1.1801,-1.1801,0,0,-1.2546,-1.2489,-1.2468,-1.2388,-1.2342,-1.2303,-1.2261,-1.222,-1.219,-1.2123,-1.2076,-1.2033,-1.1966,-1.1925,-1.1904,-1.189,-1.1859,-1.1856,-1.186,-1.1856,-1.1833,-1.1837,-1.184,-1.1801,-1.1801,-1.1801,0,0,-1.2565,-1.2518,-1.249,-1.2446,-1.2378,-1.2332,-1.2325,-1.2247,-1.2216,-1.2168,-1.2117,-1.208,-1.1999,-1.1954,-1.1921,-1.1927,-1.1889,-1.1913,-1.1938,-1.1919,-1.1922,-1.1924,-1.1926,-1.1928,-1.1912,-1.1912,-1.1912,0,-1.26,-1.2539,-1.2479,-1.2442,-1.2409,-1.2349,-1.232,-1.228,-1.2199,-1.2177,-1.2163,-1.2062,-1.2012,-1.196,-1.1962,-1.1937,-1.1927,-1.1921,-1.1926,-1.1928,-1.1929,-1.193,-1.1931,-1.1915,-1.1915,-1.1914,-1.1914,0,-1.2586,-1.2545,-1.253,-1.2456,-1.242,-1.2388,-1.2323,-1.2294,-1.2258,-1.2213,-1.2166,-1.2105,-1.2044,-1.2029,-1.1992,-1.1972,-1.1966,-1.194,-1.1914,-1.1936,-1.1936,-1.1936,-1.192,-1.1919,-1.1918,-1.1917,0,0,-1.2642,-1.2538,-1.2534,-1.25,-1.2422,-1.2389,-1.2354,-1.2296,-1.2273,-1.222,-1.2189,-1.2124,-1.21,-1.2062,-1.202,-1.2004,-1.2013,-1.1979,-1.1977,-1.1988,-1.1988,-1.2008,-1.2009,-1.1989,-1.1988,-1.1988,-1.1994,0,-1.265,-1.2585,-1.2532,-1.2486,-1.2448,-1.2392,-1.2362,-1.2311,-1.2269,-1.2229,-1.2182,-1.2137,-1.2109,-1.2086,-1.2067,-1.2016,-1.2012,-1.2015,-1.1958,-1.1957,-1.1976,-1.2009,-1.2029,-1.2037,-1.1993,-1.1993,-1.1993,0,-1.2649,-1.2601,-1.2553,-1.2481,-1.2463,-1.2436,-1.238,-1.2343,-1.2285,-1.2255,-1.2215,-1.2172,-1.2133,-1.2113,-1.2058,-1.2061,-1.2035,-1.2007,-1.2006,-1.1997,-1.1976,-1.2001,-1.2038,-1.2039,-1.1992,-1.1992,-1.1993,0,-1.2696,-1.2619,-1.258,-1.2553,-1.2468,-1.2451,-1.2415,-1.2356,-1.2326,-1.2276,-1.2255,-1.2202,-1.2172,-1.2131,-1.2075,-1.2066,-1.2026,-1.2001,-1.2,-1.2002,-1.1993,-1.1995,-1.2026,-1.1978,-1.1978,-1.1978,-1.1978,0,-1.271,-1.2682,-1.26,-1.2577,-1.2545,-1.2484,-1.2454,-1.2412,-1.2361,-1.2328,-1.2277,-1.2247,-1.2175,-1.2136,-1.2092,-1.2054,-1.2041,-1.2016,-1.2004,-1.202,-1.2023,-1.2001,-1.1999,-1.1978,-1.1978,-1.1978,-1.1978,0,-1.2756,-1.27,-1.2654,-1.2579,-1.2559,-1.2539,-1.2474,-1.2449,-1.2405,-1.2364,-1.2351,-1.2282,-1.2234,-1.2175,-1.2107,-1.2078,-1.2044,-1.2027,-1.2064,-1.2058,-1.206,-1.2061,-1.2078,-1.2078,-1.2031,-1.2032,-1.2032,0,-1.2768,-1.2746,-1.2669,-1.2644,-1.261,-1.257,-1.2539,-1.2479,-1.2448,-1.2382,-1.2365,-1.2314,-1.227,-1.2196,-1.2139,-1.2088,-1.2069,-1.2079,-1.2061,-1.2078,-1.2069,-1.2071,-1.2069,-1.2083,-1.2084,-1.2084,-1.2085,0,-1.2796,-1.277,-1.2727,-1.2676,-1.2641,-1.2597,-1.2551,-1.2534,-1.2464,-1.2433,-1.2384,-1.235,-1.2283,-1.2233,-1.2175,-1.2137,-1.21,-1.2092,-1.2089,-1.2104,-1.2127,-1.2115,-1.2077,-1.2091,-1.209,-1.209,-1.209,-1.2089,-1.2824,-1.2803,-1.2746,-1.2701,-1.2661,-1.262,-1.2593,-1.2547,-1.2506,-1.2447,-1.2414,-1.2367,-1.2311,-1.223,-1.2194,-1.2156,-1.2141,-1.2137,-1.2136,-1.2136,-1.2141,-1.2134,-1.2145,-1.2145,-1.2144,-1.2144,-1.2144,0,-1.285,-1.2811,-1.277,-1.2709,-1.2674,-1.2644,-1.2592,-1.2564,-1.2524,-1.2475,-1.2434,-1.2379,-1.2331,-1.2272,-1.2219,-1.2201,-1.2182,-1.2189,-1.2189,-1.2181,-1.2156,-1.2164,-1.2205,-1.2205,-1.2205,-1.2205,-1.2205,-1.2205,-1.2858,-1.2821,-1.2789,-1.2731,-1.2692,-1.2646,-1.2619,-1.2581,-1.2542,-1.2484,-1.2444,-1.2407,-1.2354,-1.2298,-1.2253,-1.2236,-1.222,-1.2232,-1.221,-1.2188,-1.2183,-1.2178,-1.2184,-1.2229,-1.2229,-1.2238,-1.2238,-1.2238]},{"header":{"parameterUnit":"m.s-1","parameterCategory":1,"la1":30.2991,"la2":30.254,"lo1":-89.0895,"lo2":-89.0444,"dy":0.0017,"dx":0.0017,"nx":28,"ny":28,"refTime":"2024-07-07T09:00:00:Z","depth":0,"parameterNumber":3,"parameterNumberName":"V-component_of_WINDS"},"data":[0,0,0,0,0,0,0,0,0,0,0,0,0,0,0,0,0,0,0,0,0,0,0,0,0,0,0,0,0,0,0,0,0,0,0,0,0,0,0,0,0,0,0,0,0,0,0,0,0,0,0,0,0,0,0,0,0,0,4.4664,4.4663,0,4.4629,4.4628,4.4628,4.46,4.4599,4.4599,4.4599,4.456,4.4559,4.4558,0,0,0,0,0,0,0,0,0,0,0,0,0,4.4705,4.4704,4.4664,4.4663,4.4663,4.4629,4.4628,4.4628,4.46,4.4599,4.4599,4.4599,4.456,4.4559,4.4558,0,0,0,0,0,0,0,0,0,0,0,0,0,4.468,4.4704,4.4664,4.4645,4.4643,4.4629,4.4628,4.4628,4.46,4.4599,4.4599,4.4599,4.456,4.4559,4.4558,4.4558,0,0,4.4554,4.4554,0,0,0,0,0,0,0,0,4.4682,4.4679,4.4648,4.4646,4.4644,4.4618,4.4628,4.4604,4.46,4.4616,4.4599,4.4598,4.4579,4.4576,4.4571,4.4557,4.4555,4.4554,4.4553,4.4553,4.4552,0,0,0,0,0,0,0,4.4683,4.468,4.465,4.4648,4.4645,4.4638,4.4634,4.4624,4.46,4.4615,4.4613,4.4609,4.4578,4.4572,4.4569,4.4554,4.4554,4.4553,4.4552,4.4552,4.4541,4.4541,0,0,0,0,0,0,4.4688,4.4682,4.4651,4.4649,4.4662,4.4637,4.4633,4.4627,4.46,4.4596,4.4609,4.4608,4.4574,4.4571,4.4568,4.4568,4.4553,4.4552,4.4551,4.454,4.4541,4.4541,0,0,0,0,0,0,4.4689,4.4686,4.4652,4.4665,4.466,4.4637,4.4631,4.4626,4.462,4.4596,4.4592,4.4608,4.4574,4.457,4.4562,4.4566,4.4551,4.455,4.454,4.454,4.4541,4.4567,0,0,0,0,0,0,4.4691,4.4686,4.4687,4.4665,4.4659,4.4647,4.4631,4.4626,4.4619,4.4616,4.4593,4.4589,4.4573,4.4564,4.456,4.4564,4.4549,4.4539,4.454,4.4541,4.4566,4.4569,4.4571,0,0,0,0,0,4.4692,4.4695,4.4687,4.4683,4.4659,4.4648,4.4644,4.4627,4.4619,4.4619,4.4604,4.459,4.4566,4.4563,4.4559,4.4563,4.4539,4.454,4.4541,4.4565,4.4568,4.4571,0,0,0,0,0,0,4.4716,4.4691,4.4683,4.4678,4.4665,4.4643,4.4642,4.4631,4.4619,4.4617,4.4594,4.4589,4.4584,4.4572,4.4569,4.4563,4.4551,4.4551,4.457,4.4573,4.4576,4.4579,4.4548,0,0,0,0,0,4.4721,4.4714,4.4693,4.4691,4.4685,4.4665,4.4659,4.4647,4.4632,4.4626,4.461,4.4596,4.4586,4.4579,4.4568,4.4564,4.4559,4.4565,4.4568,4.457,4.457,4.4569,4.4571,4.4544,4.4544,4.4544,0,0,4.4731,4.4717,4.4713,4.4695,4.4684,4.4677,4.4661,4.4653,4.4648,4.4625,4.4617,4.4605,4.4587,4.4582,4.4579,4.4572,4.4577,4.4571,4.4573,4.4572,4.457,4.4573,4.4575,4.4545,4.4545,4.4545,0,0,4.4745,4.4734,4.4732,4.4721,4.4705,4.4692,4.4691,4.4671,4.4663,4.4655,4.4637,4.463,4.4612,4.4601,4.4593,4.4605,4.4592,4.4602,4.4615,4.4614,4.4616,4.4618,4.4623,4.4625,4.4602,4.4602,4.4602,0,4.4759,4.4749,4.4731,4.4726,4.4719,4.4699,4.4697,4.4687,4.4668,4.4663,4.4656,4.4634,4.4621,4.4613,4.4617,4.4611,4.4609,4.4604,4.4618,4.4619,4.4621,4.4625,4.4627,4.4604,4.4604,4.4603,4.4603,0,4.4767,4.476,4.476,4.4744,4.4737,4.4733,4.4714,4.4709,4.4698,4.4686,4.4678,4.4662,4.4648,4.4645,4.4633,4.4636,4.4632,4.4622,4.4609,4.4625,4.4629,4.463,4.4606,4.4605,4.4605,4.4604,0,0,4.4794,4.477,4.477,4.4763,4.4744,4.4738,4.4734,4.4721,4.4717,4.4705,4.47,4.4687,4.4678,4.4668,4.4655,4.4654,4.4666,4.4644,4.4643,4.4649,4.4669,4.4677,4.4679,4.4657,4.4658,4.4658,4.4671,0,4.4806,4.4798,4.4783,4.4779,4.4773,4.4755,4.4751,4.4739,4.4728,4.472,4.4707,4.4698,4.4686,4.4681,4.4679,4.4665,4.467,4.4664,4.4653,4.4653,4.4658,4.4681,4.469,4.4702,4.4672,4.4672,4.4672,0,4.4818,4.4808,4.4805,4.4788,4.4785,4.4782,4.477,4.4763,4.4749,4.4741,4.4732,4.4718,4.4712,4.4702,4.4693,4.469,4.4684,4.4677,4.4677,4.4675,4.4663,4.468,4.4706,4.4708,4.4674,4.4674,4.4674,0,4.4839,4.4825,4.4821,4.4815,4.4796,4.4794,4.4785,4.4771,4.4765,4.4755,4.4751,4.4739,4.4733,4.4724,4.4708,4.4701,4.4701,4.4689,4.4694,4.4695,4.4695,4.4695,4.472,4.4691,4.4691,4.4691,4.4691,0,4.4853,4.4852,4.4831,4.4828,4.4826,4.4809,4.4807,4.4797,4.4785,4.478,4.4764,4.4759,4.4738,4.4731,4.4718,4.4714,4.4711,4.4704,4.47,4.4705,4.4706,4.4701,4.47,4.4692,4.4692,4.4692,4.4691,0,4.4876,4.4862,4.4857,4.4839,4.4835,4.4834,4.4819,4.4816,4.4804,4.4798,4.4796,4.4777,4.4769,4.4752,4.4738,4.4729,4.4728,4.4721,4.4733,4.4731,4.4737,4.4737,4.476,4.4763,4.4732,4.4733,4.4733,0,4.4887,4.4885,4.4868,4.4864,4.4857,4.4851,4.4845,4.4829,4.4823,4.4809,4.4807,4.4798,4.4789,4.4776,4.4761,4.4751,4.4744,4.4753,4.4742,4.4748,4.4745,4.4745,4.4745,4.4755,4.4756,4.4756,4.4756,0,4.4906,4.49,4.4893,4.4884,4.4878,4.487,4.486,4.4858,4.4839,4.4834,4.4826,4.482,4.4807,4.4797,4.4785,4.4775,4.4763,4.476,4.4761,4.4766,4.4773,4.477,4.474,4.476,4.4759,4.4759,4.4759,4.4759,4.4923,4.4922,4.491,4.4903,4.4895,4.4887,4.4884,4.4873,4.4866,4.4855,4.4846,4.4838,4.4826,4.4808,4.48,4.4794,4.4788,4.4789,4.4789,4.4789,4.4792,4.4774,4.4791,4.4791,4.4791,4.4791,4.4791,0,4.4943,4.4935,4.4929,4.4918,4.4912,4.4903,4.4892,4.4888,4.4883,4.4872,4.4865,4.4856,4.4847,4.4832,4.4823,4.4821,4.4815,4.4819,4.4819,4.4817,4.4798,4.4798,4.4824,4.4824,4.4824,4.4824,4.4824,4.4824,4.4953,4.495,4.4942,4.4936,4.4927,4.4921,4.4916,4.4909,4.4901,4.4893,4.4886,4.4877,4.4865,4.4854,4.4846,4.4842,4.4839,4.4845,4.4839,4.4821,4.4818,4.4815,4.4816,4.4844,4.4844,4.4859,4.4859,4.4859]}]]